Location: Newark
(36.3167°N, 139.0000°E)
Time: 23:05:49
(UTC+00:00)

Hubble Space Telescope - Visible Passes

Search period start: 23 October 2019 00:00
Search period end: 02 November 2019 00:00
Orbit: 536 x 540 km, 28.5° (Epoch: 23 October)

Date Brightness Start Highest point End Pass type
(mag) Time Alt. Az. Time Alt. Az. Time Alt. Az.
28 Oct 3.5 19:10:22 10° S 19:11:27 11° SSE 19:12:32 10° SE visible
29 Oct 3.3 19:00:15 13° SSE 19:00:44 13° SSE 19:02:44 10° SE visible
30 Oct 3.2 18:50:31 15° SSE 18:50:31 15° SSE 18:52:33 10° SE visible
30 Oct 2.5 20:27:14 10° SW 20:30:42 26° S 20:34:09 10° ESE visible
31 Oct 3.3 18:40:43 16° SE 18:40:43 16° SE 18:42:13 10° ESE visible
31 Oct 2.4 20:16:33 10° SW 20:20:02 27° S 20:23:33 10° ESE visible
01 Nov 3.5 18:30:52 14° SE 18:30:52 14° SE 18:31:47 10° ESE visible
01 Nov 2.3 20:06:13 12° WSW 20:09:24 27° S 20:12:55 10° ESE visible
